FW6927 Weather Reports


Display with metric or nautical units.
time (UTC)temp
F
wind
direction
speed
MPH
gust
MPH
rain 1hr
in
rain 24hr
in
rain mn
in
humidity
%
barometer
mb
20260505013525 56 279 2.0 4.0 0.00 0.00 0.00 74 1013.1
20260505012526 56 294 1.0 2.0 0.00 0.00 0.00 74 1013.0
20260505011525 56 267 1.0 3.0 0.00 0.00 0.00 72 1012.6
20260505010526 56 307 1.0 2.0 0.00 0.00 0.00 71 1012.6
20260505005540 57 328 2.0 5.0 0.00 0.00 0.00 69 1012.4
20260505004532 57 336 1.0 3.0 0.00 0.00 0.00 67 1012.3
20260505003533 57 287 2.0 3.0 0.00 0.00 0.00 66 1012.1
20260505002528 58 331 2.0 3.0 0.00 0.00 0.00 64 1011.6
20260505001528 58 280 2.0 6.0 0.00 0.00 0.00 63 1011.6
20260505000529 59 174 1.0 3.0 0.00 0.00 0.00 61 1011.5
20260504235528 59 310 2.0 3.0 0.00 0.00 0.00 59 1011.4
20260504234528 60 321 2.0 4.0 0.00 0.00 0.00 58 1011.3
20260504233527 61 89 3.0 4.0 0.00 0.00 0.00 57 1011.3
20260504232527 61 309 3.0 7.0 0.00 0.00 0.00 55 1010.9
20260504231521 62 315 4.0 8.0 0.00 0.00 0.00 54 1010.9
20260504230516 63 49 3.0 6.0 0.00 0.00 0.00 54 1010.9
20260504225536 63 289 3.0 7.0 0.00 0.00 0.00 53 1010.8
20260504224516 63 323 2.0 6.0 0.00 0.00 0.00 53 1010.7
20260504223517 64 315 3.0 6.0 0.00 0.00 0.00 52 1010.7
20260504222517 65 302 3.0 7.0 0.00 0.00 0.00 52 1010.6
20260504221518 65 306 4.0 9.0 0.00 0.00 0.00 51 1010.4
20260504220518 66 298 3.0 6.0 0.00 0.00 0.00 51 1010.4
20260504215518 67 287 3.0 7.0 0.00 0.00 0.00 50 1010.4
20260504214517 67 264 3.0 4.0 0.00 0.00 0.00 49 1010.4
20260504213523 67 223 4.0 6.0 0.00 0.00 0.00 49 1010.4
20260504212517 67 313 3.0 3.0 0.00 0.00 0.00 49 1010.4
20260504211523 68 314 3.0 8.0 0.00 0.00 0.00 48 1010.2
20260504210524 68 285 4.0 6.0 0.00 0.00 0.00 47 1010.2
20260504205524 68 294 3.0 6.0 0.00 0.00 0.00 46 1010.2
20260504204524 69 347 4.0 9.0 0.00 0.00 0.00 44 1010.1
20260504203524 70 300 3.0 5.0 0.00 0.00 0.00 44 1010.1
20260504202605 71 6 3.0 5.0 0.00 0.00 0.00 43 1010.1
20260504201525 72 260 3.0 5.0 0.00 0.00 0.00 41 1010.1
20260504200525 74 300 2.0 4.0 0.00 0.00 0.00 39 1010.1
20260504195525 76 212 3.0 4.0 0.00 0.00 0.00 35 1010.1
20260504194540 77 312 3.0 7.0 0.00 0.00 0.00 36 1010.1
20260504193532 78 285 3.0 4.0 0.00 0.00 0.00 35 1010.2
20260504192533 78 324 3.0 6.0 0.00 0.00 0.00 35 1010.1
20260504191533 77 290 3.0 5.0 0.00 0.00 0.00 35 1010.2
20260504190529 77 265 3.0 4.0 0.00 0.00 0.00 35 1010.3
20260504185529 78 240 3.0 5.0 0.00 0.00 0.00 36 1010.4
20260504184529 77 287 4.0 9.0 0.00 0.00 0.00 34 1010.4
20260504183529 77 264 5.0 8.0 0.00 0.00 0.00 33 1010.6
20260504182529 78 307 4.0 8.0 0.00 0.00 0.00 34 1010.9
20260504181529 79 247 3.0 7.0 0.00 0.00 0.00 35 1010.9
20260504180543 78 258 3.0 5.0 0.00 0.00 0.00 35 1011.2
20260504175517 78 271 3.0 5.0 0.00 0.00 0.00 35 1011.1
20260504174517 77 304 4.0 9.0 0.00 0.00 0.00 34 1010.9
20260504173517 79 227 4.0 9.0 0.00 0.00 0.00 34 1010.9
20260504172538 79 265 4.0 5.0 0.00 0.00 0.00 33 1010.9
20260504171518 79 229 2.0 4.0 0.00 0.00 0.00 35 1011.1
20260504170518 77 291 4.0 6.0 0.00 0.00 0.00 34 1011.1
20260504150522 76 234 4.0 8.0 0.00 0.00 0.00 37 1012.4
20260504140529 69 231 3.0 5.0 0.00 0.00 0.00 43 1013.1
20260504130517 65 329 2.0 4.0 0.00 0.00 0.00 47 1013.4
20260504110520 45 325 1.0 2.0 0.00 0.00 0.00 76 1013.6
20260504100527 37 0.0 0.0 0.00 0.00 0.00 94 1013.3
20260504081533 40 0.0 0.0 0.00 0.00 0.00 89 1013.0
20260504080517 40 0.0 0.0 0.00 0.00 0.00 91 1013.1
20260504050518 36 0.0 0.0 0.00 0.00 0.00 92 1013.1
20260504045524 36 0.0 0.0 0.00 0.00 0.00 94 1013.1
20260504044524 36 0.0 0.0 0.00 0.00 0.00 91 1013.1
20260504043524 37 0.0 0.0 0.00 0.00 0.00 91 1013.1
20260504042524 37 0.0 0.0 0.00 0.00 0.00 91 1013.0
20260504041520 37 0.0 0.0 0.00 0.00 0.00 91 1013.0
20260504040519 37 0.0 0.0 0.00 0.00 0.00 88 1012.9
20260504035519 37 0.0 0.0 0.00 0.00 0.00 88 1012.9
20260504034518 37 0.0 0.0 0.00 0.00 0.00 87 1012.9
20260504033525 38 0.0 0.0 0.00 0.00 0.00 87 1012.8
20260504032539 38 0.0 0.0 0.00 0.00 0.00 86 1012.6
20260504031525 38 0.0 0.0 0.00 0.00 0.00 86 1012.6
20260504030546 38 0.0 0.0 0.00 0.00 0.00 84 1012.6
20260504025526 38 0.0 0.0 0.00 0.00 0.00 85 1012.5
20260504024526 39 0.0 0.0 0.00 0.00 0.00 84 1012.4
20260504023527 39 0.0 0.0 0.00 0.00 0.00 84 1012.4
20260504022527 39 0.0 0.0 0.00 0.00 0.00 83 1012.3
20260504021527 40 0.0 0.0 0.00 0.00 0.00 80 1012.4
20260504020527 40 0.0 0.0 0.00 0.00 0.00 79 1012.3
20260504015527 40 0.0 0.0 0.00 0.00 0.00 76 1012.2
20260504014522 41 0.0 0.0 0.00 0.00 0.00 73 1012.1